This demonstration page uses our WeatherBlox Daily Observations layout. Learn more.

Left ArrowRight Arrow

39.92423, -83.80882

Hourly Observations for February 20, 2022

Temp ( °F °C ) Dew Point ( °F °C ) Humidity (%) Winds ( mph kmh ) Pressure ( in mb ) Visibility ( mi km ) Precip ( " mm )
12:56 am 00:56 Clear 18 -7.8 14 -10 84 84 SSE 7 11 30.40 1030 10 16 0.00 0.00
1:56 am 01:56 Clear 19 -7.2 15 -9.4 84 84 SSE 8 13 30.38 1029 10 16 0.00 0.00
2:56 am 02:56 Clear 19 -7.2 15 -9.4 84 84 S 8 13 30.37 1028 10 16 0.00 0.00
3:56 am 03:56 Clear 20 -6.7 15 -9.4 81 81 S 5 7 30.35 1028 10 16 0.00 0.00
4:56 am 04:56 Clear 21 -6.1 14 -10 74 74 S 8 13 30.33 1027 10 16 0.00 0.00
5:56 am 05:56 Clear 21 -6.1 14 -10 74 74 S 8 13 30.34 1027 10 16 0.00 0.00
6:56 am 06:56 Clear 22 -5.6 14 -10 71 71 S 9 15 30.33 1027 10 16 0.00 0.00
7:56 am 07:56 Sunny 24 -4.4 14 -10 65 65 S 8 13 30.32 1027 10 16 0.00 0.00
8:56 am 08:56 Sunny 29 -1.7 16 -8.9 58 58 S 13 20 30.31 1027 10 16 0.00 0.00
9:56 am 09:56 Sunny 34 1.1 14 -10 44 44 SSW 9 15 30.29 1026 10 16 0.00 0.00
10:56 am 10:56 Sunny 38 3.3 16 -8.9 41 41 S 12 19 30.26 1025 10 16 0.00 0.00
11:56 am 11:56 Sunny 43 6.1 18 -7.8 37 37 SSW 13 20 30.23 1024 10 16 0.00 0.00
12:56 pm 12:56 Sunny 46 7.8 22 -5.6 38 38 SSW 14 22 30.19 1023 10 16 0.00 0.00
1:56 pm 13:56 Sunny 48 8.9 26 -3.3 42 42 SSW 13 20 30.15 1021 10 16 0.00 0.00
2:56 pm 14:56 Sunny 51 10.6 27 -2.8 39 39 SSW 14 22 30.11 1020 10 16 0.00 0.00
3:56 pm 15:56 Sunny 53 11.7 29 -1.7 40 40 SSW 17 28 30.08 1019 10 16 0.00 0.00
4:56 pm 16:56 Sunny 53 11.7 30 -1.1 41 41 SSW 10 17 30.06 1018 10 16 0.00 0.00
5:56 pm 17:56 Sunny 51 10.6 29 -1.7 43 43 SSW 10 17 30.07 1018 10 16 0.00 0.00
6:56 pm 18:56 Clear 45 7.2 28 -2.2 52 52 S 7 11 30.09 1019 10 16 0.00 0.00
7:56 pm 19:56 Clear 44 6.7 28 -2.2 53 53 S 6 9 30.11 1020 10 16 0.00 0.00
8:56 pm 20:56 Clear 44 6.7 28 -2.2 53 53 S 8 13 30.10 1019 10 16 0.00 0.00
9:56 pm 21:56 Clear 43 6.1 28 -2.2 56 56 S 8 13 30.11 1020 10 16 0.00 0.00
10:56 pm 22:56 Clear 42 5.6 28 -2.2 58 58 S 8 13 30.11 1020 10 16 0.00 0.00
11:56 pm 23:56 Clear 44 6.7 28 -2.2 53 53 SSW 12 19 30.11 1020 10 16 0.00 0.00

Powered by AerisWeather